Dewpoint
23 23 24 19 21 26 24 25 26 27 26 24 30 30 33 33 33 32 33 35 36 40 46 48 51 53 51 51 51 54 56 58 59 60 60 59 59 60 61 61 61 61 61 61
14 14 16 25 23 26 24 22 23 25 27 30 30 30 34 34 32 32 33 34 36 44 44 47 52 52 51 51 51 55 55 58 61 61 61 61 61 61 60 61 61 61 61 61
12 12 14 24 23 24 26 23 23 25 27 28 28 30 32 33 33 32 33 32 41 42 45 47 50 52 52 53 52 54 57 58 61 60 61 61 61 60 60 61 60 61 61 61
12 12 17 24 24 25 24 26 25 26 26 26 30 25 30 29 30 30 29 29 40 42 45 48 50 52 51 52 50 56 58 59 60 59 59 57 57 57 59 61 59 60 61 61
14 11 13 18 22 24 25 27 26 26 26 27 26 24 26 29 29 28 27 29 42 43 45 48 50 52 53 52 54 57 57 58 59 60 59 59 57 60 59 59 58 59 60 61
16 16 14 16 16 22 25 25 25 25 25 25 26 26 25 28 28 32 35 41 42 44 46 48 51 52 52 52 53 57 57 56 58 59 59 59 58 58 57 59 58 59 60 60
16 14 14 14 11 12 23 22 22 25 24 25 25 24 26 29 28 28 34 41 43 44 45 48 50 51 49 50 53 55 56 55 56 57 60 60 59 58 57 57 59 59 59 60
17 13 13 12 11 12 13 21 21 22 25 23 25 25 28 31 30 30 40 41 43 44 45 47 49 50 48 50 53 53 56 54 56 58 60 61 59 59 59 60 60 60 60 60
17 15 15 11 12 13 19 22 23 25 27 23 25 31 32 31 28 32 41 43 43 44 45 46 49 48 48 50 52 51 55 53 56 57 59 60 60 59 59 59 60 60 60 62
22 19 17 12 11 14 15 24 23 27 22 22 23 26 31 29 25 32 41 44 45 45 46 46 48 47 49 50 50 53 54 53 56 57 57 60 60 61 60 59 59 59 60 60
20 26 23 15 13 10 14 18 25 24 24 23 22 25 31 28 28 39 42 44 44 44 44 46 47 47 49 50 50 53 51 53 54 55 54 59 60 59 60 60 61 61 60 61
19 27 22 24 15 13 16 18 28 23 27 24 25 27 30 32 40 40 42 43 43 43 44 45 46 45 48 49 50 52 51 53 53 54 53 57 58 59 60 60 60 60 61 61
20 20 25 24 22 18 13 23 25 30 30 27 24 26 34 32 34 41 41 41 41 42 42 44 45 43 46 49 50 52 52 50 52 54 52 56 58 59 59 60 62 60 60 61
33 20 18 23 23 21 14 25 24 29 27 26 26 27 32 31 29 35 41 40 40 40 41 43 44 41 44 46 49 51 51 49 50 53 52 53 58 58 58 60 61 62 61 61
34 18 23 20 24 25 19 24 24 23 28 25 26 29 31 31 30 33 40 40 40 39 41 43 43 41 43 44 48 50 50 47 47 53 53 53 57 57 59 57 60 61 60 58
34 24 20 21 23 21 20 22 24 24 25 28 25 24 32 34 31 33 40 39 39 39 40 43 44 41 43 44 47 49 50 46 45 52 53 54 55 56 58 58 57 60 60 56
32 38 23 19 19 21 20 23 23 24 26 24 23 25 30 32 32 34 37 39 39 38 39 42 44 42 41 44 45 49 50 46 44 51 53 53 53 54 57 57 57 57 56 55
32 33 34 21 20 18 25 28 26 26 26 27 26 27 30 31 34 35 36 39 39 39 39 42 43 43 43 46 46 49 49 45 44 47 49 52 52 54 56 56 57 57 58 57
33 34 36 25 22 23 26 30 26 27 27 27 27 28 27 29 32 31 30 42 42 41 41 42 44 47 45 45 48 48 48 44 43 45 46 49 49 52 53 55 57 57 57 57
33 37 37 32 24 18 23 28 30 31 25 32 31 30 28 31 28 30 35 41 43 44 44 42 46 46 44 45 48 46 48 44 43 44 44 46 47 52 52 56 58 57 58 56
33 35 32 32 29 24 26 31 30 23 26 34 31 33 33 30 33 34 39 37 44 45 45 45 47 45 44 45 47 45 48 45 44 44 45 43 46 51 53 58 58 58 58 57
35 33 32 30 31 24 30 30 26 30 35 38 36 37 37 37 39 39 38 42 44 45 46 45 46 46 47 45 46 46 47 47 45 44 45 43 47 49 55 57 58 58 58 57
37 38 37 38 34 37 38 35 36 42 32 36 36 41 40 40 37 37 34 42 43 44 46 46 46 49 47 46 45 46 47 48 46 45 46 47 46 48 56 57 58 57 57 57
38 40 41 40 41 38 39 39 39 41 36 38 37 42 39 38 37 35 38 42 44 44 46 46 48 48 47 46 45 46 50 49 46 46 49 48 44 51 54 57 57 56 56 55
38 39 39 42 41 39 40 40 43 44 41 37 37 40 39 38 38 36 38 43 43 43 47 48 49 49 48 47 47 48 49 48 46 48 50 46 46 51 52 54 56 55 55 53
41 39 39 41 42 38 39 37 43 46 47 48 46 40 42 39 39 37 37 42 43 46 48 48 50 50 50 48 48 48 48 47 48 49 50 47 46 52 51 52 53 41 44 45
Lifted_Index
7 6 5 5 5 4 4 3 2 2 1 1 0 -0 -0 -1 -0 -1 -0 -0 0 1 2 2 1 1 1 1 1 1 0 -0 -1 -1 -1 -1 -0 0 1 0 0 0 -0 -0
6 6 6 5 5 4 4 3 2 2 1 1 0 -0 -1 -1 -1 -0 -0 0 0 1 2 2 1 1 1 1 1 1 0 -1 -1 -1 -1 -1 -0 0 0 0 0 -0 -0 -0
6 6 6 6 5 4 4 3 3 2 1 1 0 -0 -0 -0 -0 -0 -0 0 1 2 2 1 1 1 1 1 1 1 0 -1 -1 -1 -1 -0 0 0 0 0 0 0 -0 -0
6 6 6 5 5 4 3 3 2 2 1 1 0 0 1 1 1 0 0 0 1 2 2 1 1 1 1 1 1 1 -0 -1 -1 -1 -1 -0 0 1 1 1 1 0 -0 -1
6 6 6 5 5 4 3 3 2 1 1 0 0 1 1 1 1 1 1 1 1 1 1 1 1 0 1 1 1 1 -0 -1 -1 -1 -0 -0 0 1 1 1 1 0 -0 -1
7 7 6 6 5 4 3 2 2 1 0 0 1 1 1 1 1 1 1 1 1 1 0 0 0 0 1 1 1 1 -0 -0 -1 -1 -0 -0 0 1 1 1 0 0 -0 -1
6 6 7 6 6 5 3 2 1 1 0 1 1 1 1 1 0 1 1 0 0 0 0 0 0 0 1 1 1 1 0 0 -0 -0 -0 -0 0 1 1 0 -0 -0 -0 -1
4 5 6 6 6 5 3 2 1 0 0 1 1 1 1 1 0 0 0 -0 -0 -0 0 0 0 1 1 2 2 1 1 1 0 0 0 -0 -0 0 0 -0 -0 -0 -1 -1
3 3 4 5 5 4 3 2 1 0 -0 -0 0 1 0 0 1 1 0 -0 -0 -0 0 1 1 1 1 2 2 2 1 1 1 1 0 -0 -0 0 0 0 -0 -0 -1 -1
4 4 3 4 4 4 3 2 1 -0 -0 -0 0 1 0 0 1 1 0 -0 -0 -0 1 1 1 1 2 3 3 2 1 1 1 1 1 0 -0 0 0 0 0 0 -0 -1
5 4 3 3 3 3 2 1 -0 -0 0 0 1 1 1 0 0 0 0 0 0 0 1 1 1 2 2 3 3 2 2 2 1 1 1 1 0 -0 -0 0 1 0 -0 -1
5 4 3 2 2 2 2 1 0 -0 0 1 1 1 1 0 0 0 0 0 0 1 1 1 1 2 2 3 2 2 2 2 2 1 1 1 0 -0 -0 -0 0 1 0 -0
4 3 2 2 2 1 1 1 0 -0 0 1 1 1 0 0 0 0 -0 0 1 1 2 2 2 2 2 2 2 2 2 2 2 2 1 1 0 -0 -0 -0 -0 0 0 0
2 3 2 2 1 1 1 0 0 0 1 2 2 1 0 0 0 0 0 0 1 1 1 2 2 2 2 2 2 2 2 2 2 2 2 1 1 0 -0 -1 -1 -0 0 0
2 2 3 2 1 1 0 0 1 1 2 2 2 1 0 0 0 0 1 1 1 1 1 1 2 2 2 2 2 2 2 2 3 3 2 2 1 1 0 -1 -1 -1 -0 0
2 3 3 2 1 1 0 0 1 2 2 2 2 1 1 0 0 0 1 1 1 1 1 1 1 2 2 2 2 2 2 3 3 3 3 2 2 1 0 0 -0 -0 -0 1
3 3 2 2 1 1 0 0 1 1 1 1 2 2 1 0 -0 -0 0 1 1 1 0 1 1 2 2 2 2 2 2 2 3 3 3 3 2 2 1 1 1 0 1 1
2 2 2 2 1 1 1 1 1 1 1 1 2 2 2 1 -0 -0 0 1 1 1 0 1 1 1 1 2 3 3 2 2 3 3 4 3 3 2 1 1 1 1 1 1
2 2 2 2 1 1 1 1 1 1 1 1 1 2 2 1 0 1 1 1 1 1 1 1 1 1 1 2 2 3 2 2 3 4 4 4 4 3 2 1 1 1 1 1
1 1 1 1 1 1 2 1 1 1 1 1 1 2 2 2 2 2 1 1 1 1 1 1 0 0 1 1 2 2 2 2 3 4 4 4 4 3 3 2 1 1 1 1
0 0 0 0 1 2 2 1 1 0 0 0 1 2 2 3 2 2 2 1 1 1 1 1 0 0 0 1 1 2 2 2 3 4 4 4 4 3 3 1 1 1 1 1
0 -0 -0 -0 0 1 2 1 1 0 0 0 1 2 2 2 2 2 1 1 1 1 1 1 0 -0 -0 1 1 2 2 2 3 3 4 4 4 3 2 1 1 1 1 1
1 1 -0 -1 -0 1 1 0 0 -0 -0 0 0 1 1 2 2 2 1 1 1 1 1 1 0 -0 -0 0 1 1 2 2 3 3 3 3 4 3 2 1 1 1 1 1
3 2 0 -0 0 1 0 -0 -1 -1 -0 0 0 0 1 2 2 2 2 1 1 1 0 1 0 -0 -0 0 0 1 2 2 2 3 3 3 3 3 3 2 1 1 1 1
4 3 1 0 1 1 1 -0 -0 -1 -1 -0 -0 0 1 2 2 2 2 1 1 0 0 0 -0 -0 -1 -0 0 1 1 2 2 2 3 3 3 3 3 2 2 2 2 2
4 3 1 0 1 2 1 0 -0 -0 -1 -0 -0 -0 0 1 2 2 2 1 1 0 -0 -0 -0 -1 -1 -1 0 1 1 2 2 2 2 3 3 3 3 3 2 2 2 2